{"data":{"norad_id":59192,"intl_designator":"2024-045Q","name":"STARLINK-31536","alt_names":[],"object_type":"PAYLOAD","status":"ACTIVE","operator":null,"country":"US","launch_date":"2024-03-10","launch_site_code":"AFETR","launch_vehicle":null,"mission":null,"orbit_class":"UNKNOWN","rcs_meters":null,"size_class":null,"mass_kg":null,"dimensions":null,"purposes":["comms"],"wikipedia_slug":null,"has_3d_model":false,"image_url":null,"decayed_at":null,"tle_current":{"epoch":"2026-05-25T04:00:03.998880Z","epoch_age_seconds":63782,"freshness":"FRESH","line1":"1 59192U 24045Q   26145.16671295  .00052072  00000+0  18903-2 0  9994","line2":"2 59192  43.0010  20.6344 0001463 282.1005 218.3519 15.27548426  5858","mean_motion":15.27548426,"eccentricity":0.0001463,"inclination_deg":43.001,"raan_deg":20.6344,"arg_perigee_deg":282.1005,"mean_anomaly_deg":218.3519,"bstar":0.0018903,"rev_number":585,"period_min":94.268697181061,"perigee_km":482.13983622497,"apogee_km":484.1474469407,"semimajor_km":6861.2806415828,"source":"CELESTRAK","updated_at":"2026-05-25T13:38:18.861763Z"}}}